This is the latest recevied weather packets stored in our database for station/object F5GJJ-13. If no packets are shown the sender has not sent any weather packets the latest 1 day(s).
| Time | Temp. | Humidity | Pressure | Rain* | Wind** | Luminosity | Snow |
|---|---|---|---|---|---|---|---|
| 1778087835 | 18.33° C | 61% | 1010.6 hPa | 0 mm | - | - | - |
| 1778086875 | 18.89° C | 60% | 1010.6 hPa | 0 mm | - | - | - |
| 1778086561 | 18.89° C | 60% | 1010.6 hPa | 0 mm | - | - | - |
| 1778084954 | 18.33° C | 61% | 1010.6 hPa | 0 mm | - | - | - |
| 1778084763 | 18.33° C | 61% | 1010.6 hPa | 0 mm | - | - | - |
| 1778083035 | 18.89° C | 59% | 1010.6 hPa | 0 mm | - | - | - |
| 1778082960 | 18.89° C | 59% | 1010.6 hPa | 0 mm | - | - | - |
| 1778081160 | 18.33° C | 59% | 1010.6 hPa | 0 mm | - | - | - |
| 1778081114 | 18.33° C | 59% | 1010.6 hPa | 0 mm | - | - | - |
| 1778080154 | 17.78° C | 60% | 1010.6 hPa | 0 mm | - | - | - |
| 1778075760 | 18.89° C | 61% | 1011.6 hPa | 0 mm | - | - | - |
| 1778072474 | 18.89° C | 65% | 1011.6 hPa | 0 mm | - | - | - |
| 1778068634 | 17.78° C | 73% | 1012.6 hPa | 0 mm | - | - | - |
| 1778068560 | 17.78° C | 73% | 1012.6 hPa | 0 mm | - | - | - |
| 1778066713 | 17.22° C | 76% | 1012.6 hPa | 0 mm | - | - | - |
| 1778064959 | 16.67° C | 79% | 1011.6 hPa | 2.03 mm | - | - | - |
| 1778064793 | 16.67° C | 80% | 1011.6 hPa | 2.03 mm | - | - | - |
| 1778063834 | 15.56° C | 80% | 1011.6 hPa | 3.05 mm | - | - | - |
| 1778060954 | 15.56° C | 81% | 1012.6 hPa | 2.03 mm | - | - | - |
| 1778059994 | 15.56° C | 82% | 1011.6 hPa | 2.29 mm | - | - | - |
| 1778059034 | 15° C | 83% | 1011.6 hPa | 2.29 mm | - | - | - |
| 1778057759 | 14.44° C | 84% | 1010.6 hPa | 1.27 mm | - | - | - |
| 1778056153 | 15° C | 86% | 1010.6 hPa | 0 mm | - | - | - |
| 1778055958 | 15° C | 86% | 1010.6 hPa | 0 mm | - | - | - |
| 1778055193 | 14.44° C | 86% | 1010.6 hPa | 0 mm | - | - | - |
* Rain latest hour (hover to see other rain measurements)
** Current wind speed in m/s (hover to see current wind gust speed)